Domov               UVHVVR             MKGP            O straneh              
ZDRAVSTVENO VARSTVO RASTLIN
  MREŽA AGROMET. POSTAJ
 ► PROGNOSTIČNA OBVESTILA
AGROMETEOROLOŠKI PODATKI -
ARSO
OBVLADOVANJE TVEGANJ ZARADI
NEUGODNIH VREMENSKIH RAZMER
  ► NARAVNE NESREČE
  ► SUŠA/MOČA
  ► NAMAKANJE
  ► ŽLED (gozdarstvo)
KARTOGRAFSKI PRIKAZI
SPLETNE POVEZAVE
PROJEKTI IN PUBLIKACIJE

AGROMETEOROLOŠKA MREŽA: VREMENSKE POSTAJE IN FENOLOŠKA OPAZOVANJA

Pregled podatkov za lokacijo Drašiči, meteorološka postaja 38741

Pregled senzorjev na lokaciji

ID Ime Zadnja
vrednost
Datum
zadnje
spremembe
Tip
senzorja
1865 Temperatura 2 m (°C) 4,57 °C 15.12.2017 20:00 50YA
1866 Relativna vlaga 2 m (% RH) 85,3 % RH 15.12.2017 20:00 50YA
1867 Omočenost lista (U) 3 U 15.12.2017 20:00 A730WET
1868 Padavine (mm) 2,8 mm 15.12.2017 20:00 Rain-O-Matic

Pregled podatkov zadnjih 24 ur

Zap.
št.
Datum in čas Drašiči
Omočenost
lista
Padavine Relativna
vlaga
2
m
Temperatura
2
m
0 15.12.2017 20:00 3 2,8 85,3 4,57
1 15.12.2017 19:30 3 1,8 89,4 6,57
2 15.12.2017 19:00 3 1,6 91,67 7,72
3 15.12.2017 18:30 4 1,8 90,82 7,89
4 15.12.2017 18:00 4 2 87,94 8,25
5 15.12.2017 17:30 5 1,4 85,71 8,64
6 15.12.2017 17:00 8 1,8 89,6 8,64
7 15.12.2017 16:30 10 2 84,91 9,18
8 15.12.2017 16:00 2 0 82,71 9,4
9 15.12.2017 15:30 2 0 82,66 9,45
10 15.12.2017 15:00 0 0 80,73 9,79
11 15.12.2017 14:30 0 0 73,36 10,6
12 15.12.2017 14:00 3 0,4 70,84 11,01
13 15.12.2017 13:30 9 0,2 71,33 11,53
14 15.12.2017 13:00 9 0 80,73 11,11
15 15.12.2017 12:30 2 0 79,44 11,36
16 15.12.2017 12:00 0 0 75,95 11,28
17 15.12.2017 11:30 10 0 74,02 10,89
18 15.12.2017 11:00 3 0,2 77,09 10,26
19 15.12.2017 10:30 0 0 83,47 9,72
20 15.12.2017 10:00 0 0 84,1 9,08
21 15.12.2017 09:30 1 0 85,54 8,64
22 15.12.2017 09:00 2 0 82,44 8,79
23 15.12.2017 08:30 2 0 75,04 9,57
24 15.12.2017 08:00 10 0,2 85,64 8,21
25 15.12.2017 07:30 10 0 84,2 8,3
26 15.12.2017 07:00 10 0 87,47 7,91
27 15.12.2017 06:30 10 0 87,89 7,79
28 15.12.2017 06:00 10 0 87,42 7,81
29 15.12.2017 05:30 10 0 87,28 7,91
30 15.12.2017 05:00 10 0 87,57 7,77
31 15.12.2017 04:30 10 0 84,3 8,16
32 15.12.2017 04:00 10 0,2 80,12 8,89
33 15.12.2017 03:30 9 0 91,94 7,45
34 15.12.2017 03:00 8 0 92,55 7,52
35 15.12.2017 02:30 7 0,2 91,94 7,35
36 15.12.2017 02:00 9 0,2 92,26 7,69
37 15.12.2017 01:30 10 0,2 93,16 7,55
38 15.12.2017 01:00 10 0,2 93,16 7,23
39 15.12.2017 00:30 9 0,2 92,99 7,13
40 15.12.2017 00:00 8 0 92,45 7,13
41 14.12.2017 23:30 8 0,2 92,04 7,16
42 14.12.2017 23:00 8 0,2 91,67 7,35
43 14.12.2017 22:30 8 0 90,67 7,59
44 14.12.2017 22:00 8 0,2 89,13 8,06
45 14.12.2017 21:30 9 0,6 89,52 8,01
46 14.12.2017 21:00 9 1 90,92 7,55
© 2011 Ministrstvo za kmetijstvo, gozdarstvo in prehrano. Vse pravice pridržane.